TimeMST,TemperatureF,Dew PointF,Humidity,Sea Level PressureIn,VisibilityMPH,Wind Direction,Wind SpeedMPH,Gust SpeedMPH,PrecipitationIn,Events,Conditions,WindDirDegrees,DateUTC
12:15 AM,28.4,6.8,40,29.81,10.0,WSW,6.9,-,N/A,,Clear,250,2013-03-04 07:15:00
12:55 AM,26.6,8.6,47,29.82,10.0,WSW,6.9,-,N/A,,Partly Cloudy,250,2013-03-04 07:55:00
1:15 AM,26.6,6.8,43,29.81,10.0,WSW,9.2,-,N/A,,Clear,250,2013-03-04 08:15:00
1:35 AM,26.6,6.8,43,29.82,10.0,West,9.2,16.1,N/A,,Clear,280,2013-03-04 08:35:00
1:55 AM,26.6,3.2,37,29.83,10.0,WNW,5.8,-,N/A,,Clear,290,2013-03-04 08:55:00
2:15 AM,26.6,3.2,37,29.83,10.0,West,9.2,-,N/A,,Clear,270,2013-03-04 09:15:00
2:35 AM,21.2,3.2,46,29.84,10.0,North,6.9,-,N/A,,Clear,10,2013-03-04 09:35:00
2:55 AM,19.4,10.4,68,29.85,10.0,NE,10.4,18.4,N/A,,Clear,40,2013-03-04 09:55:00
3:15 AM,19.4,8.6,63,29.86,10.0,NE,8.1,-,N/A,,Clear,50,2013-03-04 10:15:00
3:35 AM,17.6,12.2,79,29.86,10.0,NE,3.5,-,N/A,,Clear,40,2013-03-04 10:35:00
4:15 AM,17.6,8.6,68,29.88,10.0,Calm,Calm,-,N/A,,Clear,0,2013-03-04 11:15:00
4:35 AM,17.6,10.4,73,29.88,10.0,East,4.6,-,N/A,,Clear,90,2013-03-04 11:35:00
4:55 AM,17.6,10.4,73,29.90,10.0,Calm,Calm,-,N/A,,Partly Cloudy,0,2013-03-04 11:55:00
5:15 AM,15.8,10.4,79,29.90,10.0,Calm,Calm,-,N/A,,Partly Cloudy,0,2013-03-04 12:15:00
5:35 AM,15.8,10.4,79,29.91,10.0,Calm,Calm,-,N/A,,Scattered Clouds,0,2013-03-04 12:35:00
5:55 AM,17.6,10.4,73,29.92,10.0,Calm,Calm,-,N/A,,Mostly Cloudy,0,2013-03-04 12:55:00
6:15 AM,17.6,10.4,73,29.93,10.0,NNE,3.5,-,N/A,,Mostly Cloudy,30,2013-03-04 13:15:00
6:35 AM,17.6,10.4,73,29.94,10.0,NNE,4.6,-,N/A,,Overcast,20,2013-03-04 13:35:00
6:55 AM,19.4,10.4,68,29.94,10.0,Calm,Calm,-,N/A,,Overcast,0,2013-03-04 13:55:00
7:15 AM,19.4,10.4,68,29.96,10.0,ESE,5.8,-,N/A,,Overcast,110,2013-03-04 14:15:00
7:35 AM,19.4,10.4,68,29.97,10.0,North,5.8,-,N/A,,Overcast,10,2013-03-04 14:35:00
8:15 AM,21.2,8.6,58,30.00,10.0,NE,17.3,-,N/A,,Mostly Cloudy,50,2013-03-04 15:15:00
8:35 AM,21.2,10.4,63,30.01,10.0,NNE,16.1,23.0,N/A,,Overcast,30,2013-03-04 15:35:00
8:55 AM,21.2,12.2,68,30.01,10.0,North,13.8,20.7,N/A,,Overcast,10,2013-03-04 15:55:00
9:15 AM,21.2,10.4,63,30.02,10.0,North,20.7,24.2,N/A,,Overcast,10,2013-03-04 16:15:00
9:35 AM,23.0,10.4,59,30.03,10.0,North,21.9,27.6,N/A,,Overcast,10,2013-03-04 16:35:00
10:15 AM,24.8,10.4,54,30.04,10.0,North,21.9,31.1,N/A,,Mostly Cloudy,10,2013-03-04 17:15:00
10:35 AM,24.8,8.6,50,30.06,10.0,NNE,21.9,29.9,N/A,,Partly Cloudy,20,2013-03-04 17:35:00
10:55 AM,24.8,8.6,50,30.07,10.0,North,21.9,29.9,N/A,,Scattered Clouds,10,2013-03-04 17:55:00
11:15 AM,26.6,10.4,51,30.08,10.0,North,19.6,27.6,N/A,,Partly Cloudy,10,2013-03-04 18:15:00
11:55 AM,24.8,6.8,46,30.09,10.0,North,20.7,31.1,N/A,,Scattered Clouds,10,2013-03-04 18:55:00
12:15 PM,24.8,8.6,50,30.09,10.0,NNE,21.9,29.9,N/A,,Partly Cloudy,20,2013-03-04 19:15:00
12:35 PM,26.6,8.6,47,30.09,10.0,NNE,19.6,29.9,N/A,,Partly Cloudy,20,2013-03-04 19:35:00
12:55 PM,26.6,8.6,47,30.09,10.0,NNE,21.9,26.5,N/A,,Scattered Clouds,20,2013-03-04 19:55:00
1:35 PM,28.4,8.6,43,30.10,10.0,NNE,16.1,23.0,N/A,,Scattered Clouds,20,2013-03-04 20:35:00
1:55 PM,26.6,8.6,47,30.10,10.0,NNE,13.8,21.9,N/A,,Partly Cloudy,20,2013-03-04 20:55:00
2:15 PM,26.6,8.6,47,30.11,10.0,North,13.8,-,N/A,,Partly Cloudy,10,2013-03-04 21:15:00
2:55 PM,28.4,6.8,40,30.12,10.0,NNE,13.8,19.6,N/A,,Clear,20,2013-03-04 21:55:00
3:15 PM,26.6,6.8,43,30.13,10.0,NNE,13.8,19.6,N/A,,Clear,20,2013-03-04 22:15:00
3:35 PM,26.6,5.0,40,30.14,10.0,NNE,15.0,21.9,N/A,,Clear,20,2013-03-04 22:35:00
3:55 PM,28.4,6.8,40,30.15,10.0,NNE,16.1,20.7,N/A,,Clear,30,2013-03-04 22:55:00
4:35 PM,26.6,6.8,43,30.16,10.0,NNE,13.8,19.6,N/A,,Clear,20,2013-03-04 23:35:00
4:55 PM,24.8,5.0,43,30.17,10.0,NNE,15.0,18.4,N/A,,Clear,30,2013-03-04 23:55:00
5:15 PM,24.8,6.8,46,30.17,10.0,North,15.0,-,N/A,,Clear,10,2013-03-05 00:15:00
5:35 PM,24.8,6.8,46,30.18,10.0,North,11.5,-,N/A,,Clear,10,2013-03-05 00:35:00
6:15 PM,21.2,6.8,54,30.18,10.0,NNE,6.9,-,N/A,,Clear,20,2013-03-05 01:15:00
6:35 PM,21.2,6.8,54,30.19,10.0,NE,3.5,-,N/A,,Clear,40,2013-03-05 01:35:00
6:55 PM,19.4,5.0,54,30.20,10.0,NNE,4.6,-,N/A,,Clear,20,2013-03-05 01:55:00
7:15 PM,19.4,5.0,54,30.20,10.0,Calm,Calm,-,N/A,,Clear,0,2013-03-05 02:15:00
7:35 PM,19.4,3.2,49,30.21,10.0,Calm,Calm,-,N/A,,Clear,0,2013-03-05 02:35:00
7:55 PM,19.4,6.8,58,30.20,10.0,Calm,Calm,-,N/A,,Clear,0,2013-03-05 02:55:00
8:15 PM,15.8,5.0,62,30.21,10.0,Calm,Calm,-,N/A,,Clear,0,2013-03-05 03:15:00
8:35 PM,15.8,5.0,62,30.21,10.0,Calm,Calm,-,N/A,,Clear,0,2013-03-05 03:35:00
8:55 PM,15.8,5.0,62,30.22,10.0,Calm,Calm,-,N/A,,Clear,0,2013-03-05 03:55:00
9:15 PM,17.6,8.6,68,30.22,10.0,Calm,Calm,-,N/A,,Clear,0,2013-03-05 04:15:00
9:35 PM,15.8,6.8,68,30.22,10.0,NNW,3.5,-,N/A,,Clear,340,2013-03-05 04:35:00
9:55 PM,15.8,8.6,73,30.23,10.0,Calm,Calm,-,N/A,,Clear,0,2013-03-05 04:55:00
10:15 PM,15.8,8.6,73,30.22,10.0,Calm,Calm,-,N/A,,Clear,0,2013-03-05 05:15:00
10:35 PM,15.8,8.6,73,30.22,10.0,Calm,Calm,-,N/A,,Clear,0,2013-03-05 05:35:00
10:55 PM,10.4,3.2,73,30.21,10.0,SSE,5.8,-,N/A,,Clear,160,2013-03-05 05:55:00
11:15 PM,12.2,6.8,79,30.22,10.0,SSE,4.6,-,N/A,,Clear,160,2013-03-05 06:15:00